Find Gao Fen 5-01A

NORAD ID: 54640 Int'l Des: 2022-165 Owner: GWHYZ Country: CN operational
LEOCIRCULARRETROGRADESSO

Live Position

Loading 3D Globe...

About Gao Fen 5-01A

Description loading...

Upcoming Passes

Passes for default location (London). Set your location on the main map for personalized predictions.

Altitude History

Loading altitude history...

Two-Line Element Set

1 54640U 22165A 26104.27301591 .00000263 00000-0 67741-4 0 9996
2 54640 98.2317 42.2743 0001553 158.7178 201.4085 14.57643769178103
Epoch: Apr 14, 2026 • Age: 10 hours

Current Status

Altitude 708.1 km
Velocity 7.50 km/s
Sub-Earth Point -15.28°S, 43.43°W
Launch Date Dec 8, 2022
Age 3.3 years
Type other

Technical Details

Classification Payload
Mass 2000.00 kg
Dry Mass 2000.00 kg
Total Mass 2000.00 kg
Length 2.00 m
Diameter 2.00 m
Span 8.00 m
Shape Box + 1 Pan
Manufacturer SAST
Bus Type SAST-1000
Phase Status In Orbit
Owner/State GWHYZ/CN

Most Searched